#timestamp,LO_Frequency,Hit 
1498507215.9,286047057.8,N
1498507235.7,286047057.4,N
1498507255.6,286047058.1,N
1498507275.4,286047056.2,N
1498507295.2,286047055.9,N
1498507315.0,286047054.5,N
1498507315.9,286047054.5,N
1498507335.8,286047056.8,N
1498507355.6,286047052.5,N
1498507375.4,286047052.5,N
1498507395.3,286047053.4,N
1498507415.1,286047053.7,N
1498507435.8,286047053.8,N
1498507455.7,286047052.2,N
1498507475.5,286047052.4,N
1498507495.3,286047052.3,N
1498507515.2,286047049.9,N
1498507535.9,286047049.4,N
1498507555.7,286047049.1,N
1498507575.6,286047046.8,N
1498507595.4,286047046.5,N
1498507615.2,286047046.8,N
1498507635.0,286047046.7,N
1498507636.0,286047046.7,N
1498507655.8,286047047.2,N
1498507675.6,286047044.6,N
1498507695.4,286047044.8,N
1498507715.3,286047045.6,N
1498507735.1,286047045.2,N
1498507755.8,286047044.7,N
1498507775.7,286047044.3,N
1498507795.5,286047043.4,N
1498507815.3,286047043.2,N
1498507835.2,286047043.3,N
1498507855.9,286047045.4,N
1498507875.7,286047042.9,N
1498507895.6,286047044.1,N
1498507915.4,286047044.3,N
1498507935.2,286047044.0,N
1498507955.0,286047039.8,N
1498507955.9,286047039.8,N
1498507975.8,286047039.9,N
1498507995.6,286047042.4,N
1498508015.4,286047039.8,N
1498508035.3,286047041.0,N
1498508055.1,286047040.0,N
1498508075.8,286047038.1,N
1498508095.7,286047038.9,N
1498508115.5,286047038.8,N
1498508135.3,286047038.9,N
1498508155.2,286047038.7,N
1498508175.9,286047039.0,N
1498508195.7,286047039.5,N
1498508215.5,286047039.0,N
1498508235.4,286047038.8,N
1498508255.2,286047039.1,N
1498508275.0,286047036.5,N
1498508275.9,286047036.5,N
1498508295.8,286047037.0,N
1498508315.6,286047035.3,N
1498508335.4,286047037.7,N
1498508355.3,286047037.3,N
1498508375.1,286047036.5,N
1498508395.8,286047037.2,N
1498508415.7,286047036.7,N
1498508435.5,286047039.4,N
1498508455.3,286047039.1,N
1498508475.2,286047038.6,N
1498508495.9,286047038.9,N
1498508515.7,286047038.2,N
1498508535.5,286047038.6,N
1498508555.4,286047036.5,N
1498508575.2,286047036.5,N
1498508595.0,286047039.5,N
1498508595.9,286047039.5,N
1498508615.8,286047039.3,N
1498508635.6,286047036.9,N
1498508655.4,286047037.3,N
1498508675.3,286047037.3,N
1498508695.1,286047039.3,N
1498508715.8,286047039.1,N
1498508735.7,286047039.2,N
1498508755.5,286047036.9,N
1498508775.3,286047038.9,N
1498508795.2,286047039.0,N
1498508815.9,286047036.6,N
1498508835.7,286047039.1,N
1498508855.6,286047039.1,N
1498508875.4,286047036.9,N
1498508895.2,286047037.3,N
1498508915.0,286047039.1,N
1498508916.0,286047039.1,N
1498508935.8,286047035.0,N
1498508955.6,286047036.9,N
1498508975.4,286047036.9,N
1498508995.3,286047037.2,N
1498509015.1,286047036.6,N
1498509035.8,286047037.2,N
1498509055.7,286047037.6,N
1498509075.5,286047039.2,N
1498509095.3,286047036.9,N
1498509115.2,286047039.1,N
1498509135.9,286047036.7,N
1498509155.7,286047035.4,N
1498509175.6,286047037.0,N
1498509195.4,286047037.0,N
1498509215.2,286047039.4,N
1498509235.1,286047039.6,N
1498509236.0,286047039.6,N
1498509255.8,286047039.5,N
1498509275.6,286047035.4,N
1498509295.4,286047034.9,N
1498509315.3,286047037.4,N
1498509335.1,286047035.3,N
1498509355.8,286047038.0,N
1498509375.7,286047035.0,N
1498509395.5,286047035.1,N
1498509415.3,286047035.4,N
1498509435.2,286047037.8,N
1498509455.9,286047037.7,N
1498509475.7,286047036.9,N
1498509495.6,286047036.6,N
1498509515.4,286047036.6,N
1498509535.2,286047037.0,N
1498509555.0,286047039.5,N
1498509556.0,286047039.5,N
1498509575.8,286047038.3,N
1498509595.6,286047039.1,N
1498509615.4,286047036.6,N
1498509635.3,286047038.8,N
1498509655.1,286047036.6,N
1498509675.8,286047036.8,N
1498509695.7,286047037.4,N
1498509715.5,286047036.8,N
1498509735.3,286047036.8,N
1498509755.2,286047037.5,N
1498509775.9,286047034.9,N
1498509795.7,286047037.8,N
1498509815.6,286047037.4,N
1498509835.4,286047037.2,N
1498509855.2,286047038.3,N
1498509875.0,286047039.4,N
1498509876.0,286047039.4,N
1498509895.8,286047039.2,N
1498509915.6,286047039.3,N
1498509935.4,286047041.1,N
1498509955.3,286047036.9,N
1498509975.1,286047041.1,N
1498509995.8,286047040.4,N
1498510015.7,286047038.4,N
1498510035.5,286047039.1,N
1498510055.3,286047038.9,N
1498510075.2,286047038.9,N
1498510095.9,286047038.7,N
1498510115.7,286047038.6,N
1498510135.6,286047038.7,N
1498510155.4,286047038.8,N
1498510175.2,286047038.3,N
1498510195.0,286047038.3,N
1498510196.0,286047038.3,N
1498510215.8,286047041.0,N
1498510235.6,286047042.5,N
1498510255.4,286047042.5,N
1498510275.3,286047042.5,N
1498510295.1,286047040.5,N
1498510315.8,286047040.9,N
1498510335.7,286047040.8,N
1498510355.5,286047040.7,N
1498510375.3,286047042.2,N
1498510395.2,286047042.6,N
1498510415.9,286047044.4,N
1498510435.7,286047043.3,N
1498510455.6,286047044.0,N
1498510475.4,286047043.7,N
1498510495.2,286047041.8,N
1498510515.0,286047041.7,N
1498510515.9,286047041.7,N
1498510535.8,286047043.7,N
1498510555.6,286047041.7,N
1498510575.4,286047045.2,N
1498510595.3,286047041.4,N
1498510615.1,286047042.0,N
1498510635.8,286047041.4,N
1498510655.7,286047041.7,N
1498510675.5,286047041.9,N
1498510695.3,286047044.2,N
1498510715.2,286047043.0,N
1498510735.9,286047043.0,N
1498510755.7,286047047.6,N
1498510775.6,286047047.3,N
1498510795.4,286047044.8,N
